Regional Weather Roundup
Issued by NWS

Home | Current Version | Previous Version | Graphics & Text | Print | Product List | Glossary On
Versions: 1 2 3 4 5 6 7 8 9 10 11 12 13 14 15 16 17 18 19 20 21 22 23 24 25 26 27 28 29 30 31 32 33 34 35 36 37 38 39 40 41 42 43 44 45 46 47 48 49 50
000
ASUS43 KMPX 032001
RWRMN
WEATHER ROUNDUP FOR MINNESOTA
NATIONAL WEATHER SERVICE TWIN CITIES/CHANHASSEN MN
200 PM CST TUE MAR 03 2015


NOTE: "FAIR" INDICATES FEW OR NO CLOUDS BELOW 12,000 FEET WITH NO
SIGNIFICANT WEATHER AND/OR OBSTRUCTIONS TO VISIBILITY. N/A MEANS
CURRENT SKY AND/OR WEATHER CONDITIONS ARE NOT AVAILABLE.

MNZ060>063-068>070-032100-
   Twin Cities Metro

CITY           SKY/WX    TMP DP  RH WIND       PRES   REMARKS
CRYSTAL        MIX PCPN  28  20  71 NW24G32   29.68S WCI  14
$$
MNZ001>005-007-008-013>017-022>024-027-028-032100-
   Northwest Minnesota

CITY           SKY/WX    TMP DP  RH WIND       PRES   REMARKS
ROSEAU         FAIR       9  -4  56 W18G28    29.78S WCI -10
THIEF RVR FALL CLOUDY     9   1  72 NW16G26   29.82F WCI  -9
FOSSTON        LGT SNOW  12   3  67 W15G21    29.81F WCI  -4
DETROIT LAKES  LGT SNOW  12   7  79 NW21G30   29.83R WCI  -6
MAHNOMEN       MOCLDY    11   4  74 NW21      29.82S WCI  -8
$$
MNZ006-009>011-018-025>026-032100-
   North Central Minnesota

CITY           SKY/WX    TMP DP  RH WIND       PRES   REMARKS
LONGVILLE      FAIR      18   3  53 W17G26    29.70S WCI   2
GRAND RAPIDS   CLOUDY    18   7  62 W23G32    29.64S WCI   0
COOK           CLOUDY    18   9  68 W21G26    29.61R HAZE    WCI   1
WALKER         MOCLDY    15   2  57 NW18G28   29.72S HAZE    WCI  -2
$$
MNZ012-019>021-037-032100-
   Northeast Minnesota

CITY           SKY/WX    TMP DP  RH WIND       PRES   REMARKS
DULUTH         LGT SNOW  25  16  68 W16G32    29.54S BLWGSNOWWCI  12
GRAND MARAIS     N/A     30  20  66 W9G20     29.47  WCI  22
$$
MNZ029>031-032-039>041-046>048-054>057-064-032100-
   West Central Minnesota

CITY           SKY/WX    TMP DP  RH WIND       PRES   REMARKS
WHEATON        FAIR      12   5  73 NW21G32   29.92S HAZE    WCI  -6
ELBOW LAKE     CLOUDY    13   8  78 NW28G33   29.85R HAZE    WCI  -7
WADENA         FAIR      14   3  62 NW24G35   29.77R HAZE    WCI  -5
WILLMAR        LGT SNOW  18  10  73 NW30G40   29.81S VSB 3/4 WCI  -2
$$
MNZ033>034-036-042>043-049>051-058-059-032100-
   Central Minnesota

CITY           SKY/WX    TMP DP  RH WIND       PRES   REMARKS
BUFFALO        FAIR      26  14  59 W15G24    29.72R HAZE    WCI  14
MAPLE LAKE     FAIR      26  15  62 NW20G26   29.73R WCI  12
$$
MNZ037-044-045-052-053-032100-
   East Central Minnesota

CITY           SKY/WX    TMP DP  RH WIND       PRES   REMARKS
MORA           PTSUNNY   27  18  69 NW16G23   29.67R HAZE    WCI  14
RUSH CITY      CLOUDY    28  19  68 NW16G23   29.65F WCI  17
MOOSE LAKE     CLOUDY    27  14  59 W15G26    29.60R WCI  15
CLOQUET        SNOW      23  16  74 W20G31    29.58R VSB 1/2 WCI   8
$$
MNZ071>073-080-081-089-090-097-098-032100-
   Southwest Minnesota

CITY           SKY/WX    TMP DP  RH WIND       PRES   REMARKS
MARSHALL       PTSUNNY   18   7  62 N28G38    29.87R VSB 1   WCI  -1
WORTHINGTON    CLOUDY    25  14  63 NW30      29.83R WCI   8
$$
MNZ065>067-074>077-082>085-091>093-032100-
   South Central Minnesota

CITY           SKY/WX    TMP DP  RH WIND       PRES   REMARKS
MANKATO        CLOUDY    25  18  74 NW24G33   29.74R WCI   9
ST JAMES       CLOUDY    25  19  80 NW29G36   29.80R HAZE    WCI   8
FAIRMONT       CLOUDY    25  18  74 NW30G37   29.76R WCI   8
OWATONNA       CLOUDY    28  21  74 W20       29.69S WCI  15
$$
MNZ078>079-086>088-094>096-032100-
   Southeast Minnesota

CITY           SKY/WX    TMP DP  RH WIND       PRES   REMARKS
WINONA         CLOUDY    34  27  75 NW13G18   29.66S WCI  25
AUSTIN         CLOUDY    28  23  80 NW18G28   29.68R WCI  16
PRESTON        CLOUDY    28  23  82 NW17G25   29.65R WCI  16
$$
ABBREVIATIONS USED IN REMARKS
   TC - TEMPERATURES IN CELSIUS
  WCI - WIND CHILL INDEX
   HX - HEAT INDEX
  VSB - VISIBILITY
$$


USA.gov is the U.S. government's official web portal to all federal, state and local government web resources and services.